This is the latest recevied weather packets stored in our database for station/object KE0PRS. If no packets are shown the sender has not sent any weather packets the latest 10 day(s).
| Time | Temp. | Humidity | Pressure | Rain* | Wind** | Luminosity | Snow |
|---|---|---|---|---|---|---|---|
| 1788093674 | 25° C | 54% | 1012.4 hPa | 0 mm | - | 37 W/m² | - |
| 1788093371 | 25° C | 54% | 1012.6 hPa | 0 mm | - | 30 W/m² | - |
| 1788093066 | 24.44° C | 54% | 1012.3 hPa | 0 mm | - | 25 W/m² | - |
| 1788092763 | 24.44° C | 54% | 1012.2 hPa | 0 mm | - | 19 W/m² | - |
| 1788092459 | 24.44° C | 55% | 1012.4 hPa | 0 mm | - | 12 W/m² | - |
| 1788092154 | 24.44° C | 55% | 1012.4 hPa | 0 mm | - | 8 W/m² | - |
| 1788091854 | 24.44° C | 54% | 1012.4 hPa | 0 mm | - | 4 W/m² | - |
| 1788091549 | 25° C | 54% | 1012.3 hPa | 0 mm | - | 2 W/m² | - |
| 1788091246 | 25° C | 53% | 1012.4 hPa | 0 mm | - | 1 W/m² | - |
| 1788090941 | 25° C | 53% | 1012.2 hPa | 0 mm | - | 1 W/m² | - |
| 1788090636 | 25° C | 52% | 1012.4 hPa | 0 mm | - | 0 W/m² | - |
| 1788090333 | 25.56° C | 51% | 1012.4 hPa | 0 mm | - | 0 W/m² | - |
| 1788090032 | 25.56° C | 51% | 1012.2 hPa | 0 mm | - | 0 W/m² | - |
| 1788089727 | 25.56° C | 51% | 1012.5 hPa | 0 mm | - | 0 W/m² | - |
| 1788089423 | 25.56° C | 51% | 1012.2 hPa | 0 mm | - | 0 W/m² | - |
| 1788089119 | 25.56° C | 51% | 1012.3 hPa | 0 mm | - | 0 W/m² | - |
| 1788088815 | 25.56° C | 51% | 1012.5 hPa | 0 mm | - | 0 W/m² | - |
| 1788088510 | 25.56° C | 50% | 1012 hPa | 0 mm | - | 0 W/m² | - |
| 1788088206 | 25.56° C | 50% | 1012.2 hPa | 0 mm | - | 0 W/m² | - |
| 1788087901 | 25.56° C | 50% | 1012.4 hPa | 0 mm | - | 0 W/m² | - |
| 1788087600 | 25.56° C | 51% | 1012.4 hPa | 0 mm | - | 0 W/m² | - |
| 1788087296 | 25.56° C | 51% | 1012.5 hPa | 0 mm | - | 0 W/m² | - |
| 1788086992 | 25.56° C | 50% | 1012.2 hPa | 0 mm | - | 0 W/m² | - |
| 1788086689 | 25.56° C | 50% | 1012.3 hPa | 0 mm | - | 0 W/m² | - |
| 1788086384 | 25.56° C | 50% | 1012.3 hPa | 0 mm | - | 0 W/m² | - |
* Rain latest hour (hover to see other rain measurements)
** Current wind speed in m/s (hover to see current wind gust speed)